TimeEDT,TemperatureF,Dew PointF,Humidity,Sea Level PressureIn,VisibilityMPH,Wind Direction,Wind SpeedMPH,Gust SpeedMPH,PrecipitationIn,Events,Conditions,WindDirDegrees,DateUTC
12:14 AM,58.6,53.1,82,30.14,10.0,Calm,Calm,-,N/A,,Clear,0,2013-06-21 04:14:00
12:34 AM,57.9,53.6,86,30.14,10.0,Calm,Calm,-,N/A,,Clear,0,2013-06-21 04:34:00
12:54 AM,58.6,53.6,83,30.14,10.0,Calm,Calm,-,N/A,,Clear,0,2013-06-21 04:54:00
1:14 AM,58.1,53.1,83,30.14,10.0,Calm,Calm,-,N/A,,Clear,0,2013-06-21 05:14:00
1:35 AM,57.4,53.1,85,30.14,10.0,NW,3.5,-,N/A,,Clear,310,2013-06-21 05:35:00
1:55 AM,56.7,52.5,86,30.14,10.0,Calm,Calm,-,N/A,,Clear,0,2013-06-21 05:55:00
2:15 AM,56.8,52.7,86,30.13,10.0,Calm,Calm,-,N/A,,Scattered Clouds,0,2013-06-21 06:15:00
2:35 AM,56.8,52.7,86,30.13,10.0,Calm,Calm,-,N/A,,Scattered Clouds,0,2013-06-21 06:35:00
2:55 AM,57.4,53.1,85,30.13,10.0,Calm,Calm,-,N/A,,Clear,0,2013-06-21 06:55:00
3:15 AM,61.7,54.0,76,30.12,10.0,Calm,Calm,-,N/A,,Mostly Cloudy,0,2013-06-21 07:15:00
3:35 AM,66.0,53.6,64,30.11,10.0,East,3.5,-,N/A,,Scattered Clouds,100,2013-06-21 07:35:00
3:55 AM,67.5,53.1,60,30.11,10.0,East,5.8,-,N/A,,Clear,100,2013-06-21 07:55:00
4:16 AM,68.0,52.9,58,30.10,10.0,ESE,6.9,-,N/A,,Clear,110,2013-06-21 08:16:00
4:36 AM,67.8,52.7,58,30.09,10.0,ESE,5.8,-,N/A,,Clear,110,2013-06-21 08:36:00
4:56 AM,67.8,52.7,58,30.09,10.0,ESE,5.8,-,N/A,,Clear,120,2013-06-21 08:56:00
5:16 AM,67.6,52.3,58,30.10,10.0,ESE,4.6,-,N/A,,Clear,110,2013-06-21 09:16:00
5:36 AM,67.5,52.2,58,30.10,10.0,East,4.6,-,N/A,,Clear,100,2013-06-21 09:36:00
5:56 AM,67.3,52.2,58,30.09,10.0,ESE,5.8,-,N/A,,Clear,120,2013-06-21 09:56:00
6:16 AM,67.8,52.2,57,30.08,10.0,SE,4.6,-,N/A,,Clear,130,2013-06-21 10:16:00
6:36 AM,68.9,52.3,55,30.11,10.0,ESE,4.6,-,N/A,,Clear,120,2013-06-21 10:36:00
6:56 AM,69.8,52.9,55,30.10,10.0,SE,5.8,-,N/A,,Scattered Clouds,140,2013-06-21 10:56:00
7:16 AM,69.6,53.4,56,30.09,10.0,SE,5.8,-,N/A,,Mostly Cloudy,140,2013-06-21 11:16:00
7:37 AM,69.8,54.5,58,30.09,10.0,SE,4.6,-,N/A,,Scattered Clouds,140,2013-06-21 11:37:00
7:57 AM,69.8,54.9,59,30.08,10.0,SE,5.8,-,N/A,,Clear,140,2013-06-21 11:57:00
8:12 AM,70.0,56.1,61,30.07,10.0,SSE,5.8,-,N/A,,Clear,160,2013-06-21 12:12:00
8:32 AM,70.7,57.0,62,30.06,10.0,SE,6.9,-,N/A,,Clear,140,2013-06-21 12:32:00
8:52 AM,72.0,58.5,62,30.07,10.0,SSE,9.2,-,N/A,,Clear,150,2013-06-21 12:52:00
9:12 AM,71.2,58.6,64,30.07,10.0,SSE,8.1,-,N/A,,Clear,150,2013-06-21 13:12:00
9:32 AM,71.2,59.2,66,30.06,10.0,SSE,8.1,-,N/A,,Clear,150,2013-06-21 13:32:00
9:52 AM,71.6,60.1,67,30.07,10.0,SSE,8.1,-,N/A,,Clear,150,2013-06-21 13:52:00
10:12 AM,72.5,60.8,67,30.07,10.0,SSE,8.1,-,N/A,,Clear,160,2013-06-21 14:12:00
10:33 AM,73.2,61.5,67,30.08,10.0,South,8.1,-,N/A,,Clear,170,2013-06-21 14:33:00
10:53 AM,74.3,61.7,65,30.08,10.0,South,6.9,-,N/A,,Clear,170,2013-06-21 14:53:00
11:13 AM,75.6,62.2,63,30.07,10.0,South,10.4,16.1,N/A,,Clear,180,2013-06-21 15:13:00
11:33 AM,76.1,62.2,62,30.07,10.0,South,10.4,-,N/A,,Clear,180,2013-06-21 15:33:00
11:53 AM,76.3,62.6,62,30.07,10.0,SSE,8.1,-,N/A,,Scattered Clouds,160,2013-06-21 15:53:00
12:13 PM,76.8,62.8,62,30.07,10.0,South,10.4,19.6,N/A,,Scattered Clouds,180,2013-06-21 16:13:00
12:33 PM,76.3,61.3,60,30.07,10.0,SW,15.0,24.2,N/A,,Scattered Clouds,220,2013-06-21 16:33:00
12:53 PM,73.2,59.5,62,30.07,10.0,SSW,17.3,24.2,N/A,,Mostly Cloudy,210,2013-06-21 16:53:00
1:13 PM,69.8,59.0,68,30.04,10.0,South,13.8,24.2,N/A,,Mostly Cloudy,180,2013-06-21 17:13:00
1:34 PM,71.8,60.6,68,30.02,10.0,South,11.5,25.3,N/A,,Scattered Clouds,190,2013-06-21 17:34:00
1:54 PM,73.0,61.3,67,29.99,10.0,SSE,16.1,21.9,N/A,,Scattered Clouds,160,2013-06-21 17:54:00
2:14 PM,74.8,61.9,64,29.93,10.0,SSE,24.2,32.2,N/A,,Clear,160,2013-06-21 18:14:00
2:34 PM,76.6,63.0,62,29.91,10.0,South,16.1,34.5,N/A,,Clear,170,2013-06-21 18:34:00
2:54 PM,78.1,64.0,62,29.94,10.0,South,16.1,27.6,N/A,,Clear,170,2013-06-21 18:54:00
3:14 PM,79.9,64.4,59,29.94,10.0,South,12.7,19.6,N/A,,Clear,170,2013-06-21 19:14:00
3:34 PM,81.1,63.5,55,29.95,10.0,South,13.8,20.7,N/A,,Clear,190,2013-06-21 19:34:00
3:54 PM,80.4,62.6,54,29.95,10.0,WSW,9.2,-,N/A,,Clear,240,2013-06-21 19:54:00
4:14 PM,74.7,60.4,61,29.97,10.0,West,11.5,-,N/A,,Clear,260,2013-06-21 20:14:00
4:34 PM,72.3,61.0,67,29.97,10.0,SSW,11.5,20.7,N/A,,Clear,210,2013-06-21 20:34:00
4:55 PM,69.6,60.1,72,29.97,10.0,SSW,12.7,28.8,N/A,,Clear,210,2013-06-21 20:55:00
5:15 PM,70.0,59.9,70,29.96,10.0,SSW,12.7,20.7,N/A,,Clear,210,2013-06-21 21:15:00
5:35 PM,70.2,59.4,69,29.96,10.0,SSW,13.8,19.6,N/A,,Clear,210,2013-06-21 21:35:00
5:55 PM,68.4,59.2,72,29.97,10.0,SW,13.8,20.7,N/A,,Clear,220,2013-06-21 21:55:00
6:15 PM,67.3,58.8,74,29.98,10.0,SW,10.4,19.6,N/A,,Clear,230,2013-06-21 22:15:00
6:35 PM,66.2,58.1,75,29.98,10.0,SW,16.1,24.2,N/A,,Clear,220,2013-06-21 22:35:00
6:55 PM,66.4,58.3,75,29.99,10.0,SW,13.8,27.6,N/A,,Clear,230,2013-06-21 22:55:00
7:15 PM,65.5,58.1,77,29.99,10.0,SSW,13.8,23.0,N/A,,Clear,200,2013-06-21 23:15:00
7:36 PM,65.3,58.1,77,30.00,10.0,SSW,12.7,25.3,N/A,,Clear,200,2013-06-21 23:36:00
7:56 PM,65.3,58.3,78,29.99,10.0,SSW,10.4,23.0,N/A,,Clear,200,2013-06-21 23:56:00
8:16 PM,65.3,58.5,78,30.00,10.0,SSW,11.5,19.6,N/A,,Clear,210,2013-06-22 00:16:00
8:36 PM,64.4,58.5,81,30.00,10.0,SSW,13.8,21.9,N/A,,Clear,200,2013-06-22 00:36:00
8:56 PM,63.7,58.1,82,30.00,10.0,SSW,8.1,19.6,N/A,,Clear,210,2013-06-22 00:56:00
9:16 PM,63.7,58.3,83,30.00,10.0,SSW,10.4,18.4,N/A,,Mostly Cloudy,200,2013-06-22 01:16:00
9:36 PM,64.4,58.6,82,30.00,10.0,SSW,10.4,21.9,N/A,,Overcast,210,2013-06-22 01:36:00
9:56 PM,63.9,58.5,83,30.00,10.0,SSW,6.9,-,N/A,,Overcast,210,2013-06-22 01:56:00
10:16 PM,63.5,58.5,84,30.01,10.0,SW,12.7,20.7,N/A,,Scattered Clouds,220,2013-06-22 02:16:00
10:36 PM,62.6,57.6,84,30.02,10.0,SW,6.9,-,N/A,,Clear,220,2013-06-22 02:36:00
10:57 PM,61.2,56.7,85,30.03,10.0,WSW,6.9,-,N/A,,Clear,240,2013-06-22 02:57:00
11:17 PM,60.1,56.3,87,30.03,10.0,SW,5.8,-,N/A,,Clear,230,2013-06-22 03:17:00
11:32 PM,59.9,56.1,87,30.02,10.0,WSW,3.5,-,N/A,,Scattered Clouds,250,2013-06-22 03:32:00
11:52 PM,60.1,56.3,87,30.02,10.0,Calm,Calm,-,N/A,,Mostly Cloudy,0,2013-06-22 03:52:00